This demonstration page uses our WeatherBlox Daily Observations layout. Learn more.

Left ArrowRight Arrow

39.51506, -84.39828

Hourly Observations for April 9, 2017

Temp ( °F °C ) Dew Point ( °F °C ) Humidity (%) Winds ( mph kmh ) Pressure ( in mb ) Visibility ( mi km ) Precip ( " mm )
12:15 am 00:15 Clear 42 5.8 32 0.1 67 67 Calm 30.06 1018 N/A 0.00 0.00
12:35 am 00:35 Clear 42 5.7 33 0.3 69 69 Calm 30.06 1018 10 16 0.00 0.00
12:55 am 00:55 Clear 42 5.5 33 0.3 69 69 Calm 30.06 1018 10 16 0.00 0.00
1:15 am 01:15 Clear 42 5.5 33 0.7 72 72 Calm 30.03 1017 10 16 0.00 0.00
1:35 am 01:35 Clear 42 5.4 33 0.8 73 73 Calm 30.03 1017 10 16 0.00 0.00
1:55 am 01:55 Clear 42 5.5 33 0.7 72 72 Calm 30.03 1017 10 16 0.00 0.00
2:15 am 02:15 Clear 40 4.7 33 0.5 74 74 Calm 30.06 1018 10 16 0.00 0.00
2:35 am 02:35 Clear 41 4.8 33 0.4 73 73 Calm 30.03 1017 10 16 0.00 0.00
2:55 am 02:55 Clear 40 4.7 33 0.6 75 75 Calm 30.03 1017 10 16 0.00 0.00
3:15 am 03:15 Clear 40 4.4 33 0.6 77 77 Calm 30.03 1017 10 16 0.00 0.00
3:35 am 03:35 Clear 39 4 33 0.3 77 77 Calm 30.03 1017 10 16 0.00 0.00
3:55 am 03:55 Clear 39 4 32 0.2 77 77 Calm 30.03 1017 10 16 0.00 0.00
4:15 am 04:15 Clear 39 4 33 0.3 77 77 Calm 30.03 1017 10 16 0.00 0.00
4:35 am 04:35 Clear 39 4 33 0.3 77 77 Calm 30.09 1019 10 16 0.00 0.00
4:55 am 04:55 Clear 39 4 33 0.3 77 77 Calm 30.09 1019 10 16 0.00 0.00
5:15 am 05:15 Clear 39 4 33 0.3 77 77 Calm 30.09 1019 10 16 0.00 0.00
5:35 am 05:35 Clear 39 4 33 0.5 78 78 Calm 30.09 1019 10 16 0.00 0.00
5:55 am 05:55 Clear 39 4 33 0.6 79 79 Calm 30.09 1019 10 16 0.00 0.00
6:15 am 06:15 Clear 39 4 33 0.6 79 79 Calm 30.09 1019 10 16 0.00 0.00
6:35 am 06:35 Clear 37 2.8 32 -0.1 81 81 Calm 30.09 1019 10 16 0.00 0.00
6:55 am 06:55 Clear 39 4 33 0.7 79 79 Calm 30.09 1019 10 16 0.00 0.00
7:15 am 07:15 Sunny 39 4 33 0.6 79 79 Calm 30.09 1019 10 16 0.00 0.00
7:35 am 07:35 Sunny 39 4 33 0.6 79 79 Calm 30.12 1020 10 16 0.00 0.00
7:55 am 07:55 Sunny 40 4.5 34 1.1 79 79 Calm 30.06 1018 10 16 0.00 0.00
8:15 am 08:15 Sunny 44 6.5 37 3 79 79 Calm 30.06 1018 10 16 0.00 0.00
8:35 am 08:35 Sunny 49 9.6 41 5 73 73 Calm 30.06 1018 10 16 0.00 0.00
8:55 am 08:55 Sunny 51 10.4 37 2.5 58 58 Calm 30.06 1018 10 16 0.00 0.00
9:15 am 09:15 Sunny 55 12.5 34 1 46 46 SSW 3 6 30.06 1018 10 16 0.00 0.00
9:35 am 09:35 Sunny 55 12.6 33 0.6 44 44 Calm 30.06 1018 10 16 0.00 0.00
9:55 am 09:55 Sunny 60 15.3 31 -0.5 34 34 S 7 11 30.06 1018 10 16 0.00 0.00
10:15 am 10:15 Sunny 60 15.3 26 -3.5 27 27 S 10 17 30.06 1018 10 16 0.00 0.00
10:35 am 10:35 Sunny 61 16.2 25 -3.7 25 25 S 10 17 30.03 1017 10 16 0.00 0.00
10:55 am 10:55 Sunny 64 17.9 26 -3.3 24 24 S 12 19 30.03 1017 10 16 0.00 0.00
11:15 am 11:15 Sunny 67 19.5 26 -3.6 21 21 S 10 17 30.03 1017 10 16 0.00 0.00
11:35 am 11:35 Sunny 67 19.7 26 -3.3 21 21 S 14 22 30.03 1017 10 16 0.00 0.00
11:55 am 11:55 Sunny 69 20.8 26 -3.5 19 19 S 12 19 30.03 1017 10 16 0.00 0.00
12:15 pm 12:15 Sunny 69 20.8 24 -4.5 18 18 S 10 17 30.03 1017 10 16 0.00 0.00
12:35 pm 12:35 Sunny 71 21.9 25 -3.8 18 18 S 12 19 30.00 1016 10 16 0.00 0.00
12:55 pm 12:55 Sunny 74 23.3 24 -4.5 15 15 S 15 24 30.00 1016 10 16 0.00 0.00
1:15 pm 13:15 Sunny 74 23.6 24 -4.7 15 15 SSE 13 20 30.00 1016 10 16 0.00 0.00
1:35 pm 13:35 Sunny 74 23.6 23 -5 14 14 S 10 17 29.97 1015 10 16 0.00 0.00
1:55 pm 13:55 Sunny 74 23.6 16 -8.9 11 11 S 13 20 29.97 1015 10 16 0.00 0.00
2:15 pm 14:15 Sunny 75 24 15 -9.2 10 10 SSE 15 24 29.97 1015 10 16 0.00 0.00
2:35 pm 14:35 Sunny 77 25.1 16 -9 10 10 S 16 26 29.97 1015 10 16 0.00 0.00
2:55 pm 14:55 Sunny 77 25.1 13 -10.7 8 8 SSW 18 30 29.97 1015 10 16 0.00 0.00
3:15 pm 15:15 Sunny 77 25.1 12 -11.2 8 8 S 12 19 29.94 1014 10 16 0.00 0.00
3:35 pm 15:35 Sunny 77 25.1 11 -11.9 8 8 S 14 22 29.94 1014 10 16 0.00 0.00
3:55 pm 15:55 Sunny 77 25.1 8 -13.3 7 7 S 17 28 29.94 1014 10 16 0.00 0.00
4:15 pm 16:15 Sunny 77 25.1 11 -11.6 8 8 S 13 20 29.91 1013 10 16 0.00 0.00
4:35 pm 16:35 Sunny 77 25.1 12 -11 8 8 S 16 26 29.91 1013 10 16 0.00 0.00
4:55 pm 16:55 Sunny 77 25.1 14 -10.1 9 9 S 16 26 29.91 1013 10 16 0.00 0.00
5:15 pm 17:15 Sunny 77 25.1 4 -15.3 6 6 SSE 20 31 29.88 1012 10 16 0.00 0.00
5:35 pm 17:35 Sunny 78 25.5 6 -14.7 6 6 S 18 30 29.88 1012 10 16 0.00 0.00
5:55 pm 17:55 Sunny 77 25.1 8 -13.5 7 7 S 15 24 29.88 1012 10 16 0.00 0.00
6:15 pm 18:15 Sunny 77 25.1 12 -11.3 8 8 S 18 30 29.88 1012 10 16 0.00 0.00
6:35 pm 18:35 Sunny 77 25.1 13 -10.3 9 9 S 14 22 29.88 1012 10 16 0.00 0.00
6:55 pm 18:55 Sunny 74 23.6 14 -9.8 10 10 S 13 20 29.91 1013 10 16 0.00 0.00
7:15 pm 19:15 Sunny 74 23.6 15 -9.6 10 10 S 14 22 29.91 1013 10 16 0.00 0.00
7:35 pm 19:35 Sunny 74 23.6 16 -8.9 11 11 S 14 22 29.91 1013 10 16 0.00 0.00
7:55 pm 19:55 Sunny 74 23.6 20 -6.6 13 13 S 8 13 29.88 1012 10 16 0.00 0.00
8:15 pm 20:15 Clear 74 23.6 21 -6 13 13 S 10 17 29.91 1013 10 16 0.00 0.00
8:35 pm 20:35 Clear 73 22.5 21 -6.2 14 14 S 8 13 29.91 1013 10 16 0.00 0.00
8:55 pm 20:55 Clear 71 21.9 20 -6.4 14 14 S 8 13 29.91 1013 10 16 0.00 0.00
9:15 pm 21:15 Clear 69 20.8 22 -5.4 17 17 S 8 13 29.91 1013 10 16 0.00 0.00
9:35 pm 21:35 Clear 69 20.8 23 -5.1 17 17 S 7 11 29.91 1013 10 16 0.00 0.00
9:55 pm 21:55 Clear 69 20.8 24 -4.5 18 18 S 7 11 29.91 1013 10 16 0.00 0.00
10:15 pm 22:15 Clear 69 20.8 23 -5.1 17 17 S 7 11 29.91 1013 10 16 0.00 0.00
10:35 pm 22:35 Clear 69 20.8 23 -4.9 17 17 S 7 11 29.91 1013 10 16 0.00 0.00
10:55 pm 22:55 Clear 69 20.8 24 -4.6 18 18 S 7 11 29.91 1013 10 16 0.00 0.00
11:15 pm 23:15 Clear 64 18 27 -2.9 24 24 S 5 7 29.91 1013 10 16 0.00 0.00
11:35 pm 23:35 Clear 69 20.5 26 -3.4 20 20 S 7 11 29.91 1013 10 16 0.00 0.00
11:55 pm 23:55 Clear 69 20.8 24 -4.7 18 18 S 10 17 29.91 1013 10 16 0.00 0.00

Powered by AerisWeather